#timestamp,LO_Frequency,Hit,StdDev 
1708718415.4,286046994.9,N
1708718435.2,286046995.2,N
1708718455.1,286046999.6,N
1708718456.0,286046999.6,N
1708718475.8,286046999.4,N
1708718495.7,286046997.7,N
1708718515.5,286046996.9,N
1708718535.3,286046996.9,N
1708718555.2,286046997.6,N
1708718575.0,286046997.2,N
1708718575.9,286046997.2,N
1708718595.7,286046997.6,N
1708718615.6,286046995.3,Y
1708718635.4,286046998.6,P
1708718655.3,286046998.1,P
1708718705.1,286046998.6,E
1708718715.1,286047001.1,N
1708718716.0,286047001.1,P
1708718735.8,286047002.3,P
1708718755.6,286046999.7,N
1708718775.5,286046999.7,N
1708718795.3,286046999.9,N
1708718815.1,286047002.8,N
1708718835.9,286047000.0,N
1708718855.7,286047002.6,N
1708718875.6,286047004.4,Y
1708718895.4,286047002.8,P
1708718915.2,286046999.9,N
1708718935.1,286047000.8,N
1708718936.0,286047000.8,N
1708718955.8,286046999.9,N
1708718975.7,286047000.7,N
1708718995.5,286047000.6,N
1708719015.3,286046999.8,N
1708719035.2,286047000.9,N
1708719055.0,286047001.0,N
1708719055.9,286047001.0,N
1708719075.7,286047001.1,N
1708719095.6,286047002.8,Y
1708719115.4,286046999.8,P
1708719135.3,286047002.0,P
1708719155.1,286047000.3,N
1708719175.8,286047002.8,Y
1708719195.7,286047002.0,P
1708719215.5,286047001.8,N
1708719235.4,286047003.8,P
1708719255.2,286047004.0,Y
1708719275.0,286047000.1,P
1708719275.9,286047000.1,N
1708719295.8,286046999.2,N
1708719315.6,286046997.6,N
1708719335.5,286046996.1,N
1708719355.3,286046997.0,N
1708719375.1,286046997.9,N
1708719395.9,286046997.6,N
1708719415.7,286046997.3,N
1708719435.5,286046997.6,N
1708719455.4,286046996.7,N
1708719475.2,286046997.7,N
1708719495.1,286046997.6,N
1708719496.0,286046997.6,N
1708719515.8,286046996.1,N
1708719535.6,286046995.5,N
1708719555.5,286046998.0,N
1708719575.3,286046995.8,N
1708719595.1,286046995.2,Y
1708719615.9,286046999.4,P
1708719635.7,286046996.5,P
1708719655.6,286046996.8,N
1708719675.4,286046996.8,N
1708719695.2,286046998.8,N
1708719715.1,286047001.1,N
1708719716.0,286047001.1,N
1708719735.8,286046999.9,N
1708719755.7,286046999.7,N
1708719775.5,286046999.9,N
1708719795.3,286047000.2,N
1708719815.2,286047002.6,N
1708719835.0,286047002.2,N
1708719835.9,286047002.2,N
1708719855.8,286047000.7,N
1708719875.6,286046999.7,N
1708719895.4,286047002.3,N
1708719915.3,286047000.7,N
1708719935.1,286046998.2,N
1708719955.8,286047001.2,N
1708719975.7,286046998.3,N
1708719995.5,286046998.1,N
1708720015.4,286047000.9,N
1708720035.2,286047002.8,N
1708720055.0,286047001.1,N
1708720055.9,286047001.1,N
1708720075.8,286047000.8,N
1708720095.6,286047001.0,N
1708720115.5,286047000.4,N
1708720135.3,286047002.1,N
1708720155.1,286047003.9,N
1708720175.9,286047003.7,N
1708720195.7,286047003.5,N
1708720245.6,286047001.6,E
1708720255.5,286047000.1,N
1708720275.3,286046999.3,P
1708720295.2,286046998.8,P
1708720315.0,286046996.5,Y
1708720315.9,286046996.5,P
1708720335.8,286046998.4,N
1708720355.6,286046999.8,N
1708720375.4,286047002.3,N
1708720395.3,286047002.0,N
1708720415.1,286047000.1,N
1708720435.8,286047000.7,N
1708720455.7,286047000.0,N
1708720475.5,286047000.5,N
1708720495.4,286047000.1,N
1708720515.2,286047002.0,N
1708720535.0,286047002.4,N
1708720535.9,286047002.4,N
1708720555.8,286047003.9,N
1708720575.6,286047005.6,Y
1708720595.4,286047002.9,P
1708720615.3,286047003.4,P
1708720635.1,286047002.6,N
1708720655.9,286046998.5,N
1708720675.7,286046999.0,N
1708720695.5,286046999.3,N
1708720715.4,286047001.2,N
1708720735.2,286047000.3,N
1708720755.1,286047002.5,N
1708720756.0,286047002.5,N
1708720775.8,286047000.0,N
1708720795.6,286047000.6,N
1708720815.5,286047000.9,N
1708720835.3,286046998.7,N
1708720855.1,286047002.1,N
1708720875.9,286047004.3,N
1708720895.7,286047004.1,N
1708720915.6,286047004.4,N
1708720935.4,286047001.6,N
1708720955.2,286047002.2,N
1708720975.1,286047002.7,N
1708720976.0,286047002.7,N
1708720995.8,286046998.1,N
1708721015.7,286047000.0,N
1708721035.5,286047001.9,N
1708721055.3,286047002.6,N
1708721075.2,286047002.6,N
1708721095.0,286047001.0,N
1708721095.9,286047001.0,N
1708721115.7,286047000.5,N
1708721135.6,286046999.9,N
1708721155.4,286047002.4,N
1708721175.3,286047003.4,N
1708721195.1,286047005.6,Y
1708721196.0,286047005.6,P
1708721215.8,286047000.1,N
1708721235.7,286047001.5,N
1708721255.5,286047002.1,N
1708721275.4,286047002.2,N
1708721295.2,286047001.4,N
1708721315.0,286047001.5,N
1708721315.9,286047001.5,N
1708721335.8,286047003.9,N
1708721355.6,286047003.6,N
1708721375.4,286047004.4,N
1708721395.3,286047004.3,N
1708721415.1,286047001.9,N
1708721435.9,286047002.7,N
1708721455.7,286046999.8,N
1708721475.5,286047000.9,N
1708721495.4,286047002.4,N
1708721515.2,286047000.9,N
1708721535.0,286046998.9,N
1708721535.9,286046998.9,N
1708721555.8,286046999.2,N
1708721575.6,286047000.5,N
1708721595.5,286047002.8,N
1708721615.3,286047002.5,N
1708721635.1,286047002.7,N
1708721655.9,286047000.2,N
1708721675.7,286047000.5,N
1708721695.5,286047002.5,N
1708721715.4,286047002.3,N
1708721735.2,286047001.6,N
1708721755.1,286047002.2,N
1708721756.0,286047002.2,N
1708721775.8,286047001.6,N
1708721795.6,286047001.5,N
1708721815.5,286047001.5,N
1708721835.3,286047004.3,Y
1708721855.2,286047002.5,P
1708721875.9,286047002.4,P
1708721895.7,286046999.7,N
1708721915.6,286047002.8,N
1708721935.4,286047000.7,N
1708721955.2,286047000.6,N
1708721975.1,286047000.5,N
1708721976.0,286047000.5,N
1708721995.8,286047000.6,N
